[[{"header":{"parameterUnit":"m.s-1","parameterCategory":1,"la1":30.2991,"la2":30.254,"lo1":-89.0895,"lo2":-89.0444,"dy":0.0017,"dx":0.0017,"nx":28,"ny":28,"refTime":"2024-06-29T21:00:00:Z","depth":0,"parameterNumber":2,"parameterNumberName":"U-component_of_WINDS"},"data":[0,0,0,0,0,0,0,0,0,0,0,0,0,0,0,0,0,0,0,0,0,0,0,0,0,0,0,0,0,0,0,0,0,0,0,0,0,0,0,0,0,0,0,0,0,0,0,0,0,0,0,0,0,0,0,0,0,0,2.0183,2.0184,0,2.0324,2.0325,2.0327,2.0283,2.028,2.0277,2.0274,2.0424,2.043,2.0437,0,0,0,0,0,0,0,0,0,0,0,0,0,1.988,1.9886,2.0182,2.0184,2.0186,2.0323,2.0325,2.0327,2.0284,2.028,2.0276,2.0273,2.0422,2.043,2.0438,0,0,0,0,0,0,0,0,0,0,0,0,0,2.0015,1.9887,2.0182,2.0181,2.0182,2.0323,2.0325,2.0328,2.0284,2.028,2.0275,2.0271,2.0419,2.0429,2.0439,2.0591,0,0,2.047,2.0474,0,0,0,0,0,0,0,0,2.0008,2.0026,2.0179,2.0181,2.0183,2.0281,2.0273,2.0416,2.0286,2.0246,2.0274,2.0269,2.038,2.0393,2.043,2.0598,2.0605,2.0471,2.0477,2.0481,2.0484,0,0,0,0,0,0,0,1.9998,2.002,2.0238,2.0181,2.0184,2.0174,2.0189,2.03,2.0337,2.0249,2.0246,2.0263,2.038,2.042,2.0433,2.0607,2.047,2.048,2.0486,2.049,2.0908,2.0913,0,0,0,0,0,0,1.9987,2.0013,2.0234,2.0243,2.0082,2.0184,2.0199,2.0254,2.0335,2.0343,2.0267,2.026,2.0405,2.0421,2.0438,2.0622,2.0481,2.0491,2.0497,2.0903,2.0909,2.0915,0,0,0,0,0,0,1.9981,2.0007,2.0228,2.0127,2.0154,2.0193,2.0255,2.0259,2.0299,2.0349,2.0355,2.03,2.0402,2.0424,2.0553,2.0627,2.0495,2.0505,2.0897,2.0905,2.0912,2.0991,0,0,0,0,0,0,1.9972,2.0005,2.0063,2.0128,2.016,2.034,2.026,2.0265,2.0316,2.0309,2.0382,2.039,2.04,2.0538,2.0563,2.0638,2.0512,2.0891,2.0901,2.091,2.0983,2.1001,2.1016,0,0,0,0,0,1.9962,2.008,2.0066,2.0093,2.0232,2.0344,2.0362,2.0371,2.0322,2.0381,2.0413,2.0388,2.0614,2.0552,2.058,2.0659,2.0886,2.0898,2.0909,2.0975,2.0997,2.1016,0,0,0,0,0,0,2.0024,2.0089,2.0073,2.0217,2.0275,2.0337,2.0411,2.0394,2.0469,2.0459,2.0468,2.0485,2.0617,2.0651,2.058,2.0811,2.0743,2.0761,2.0784,2.0806,2.0822,2.0812,2.0521,0,0,0,0,0,2.0054,2.0138,2.0191,2.0313,2.0342,2.0372,2.0421,2.0422,2.0483,2.0508,2.055,2.0612,2.0697,2.0753,2.0834,2.0987,2.1003,2.1055,2.1072,2.1086,2.1101,2.1185,2.1209,2.0952,2.0952,2.0951,0,0,2.0118,2.0164,2.0217,2.0326,2.0371,2.046,2.0393,2.0489,2.0555,2.0524,2.0648,2.0681,2.075,2.0892,2.0957,2.0924,2.1175,2.11,2.1111,2.1119,2.1199,2.1223,2.1245,2.0959,2.0958,2.0957,0,0,2.0279,2.0322,2.0428,2.0474,2.0543,2.0561,2.0587,2.0651,2.0671,2.0796,2.0774,2.0853,2.1,2.105,2.1095,2.1275,2.1255,2.1302,2.1391,2.1472,2.1493,2.1511,2.1575,2.1599,2.1316,2.1317,2.1317,0,2.035,2.0481,2.0485,2.0583,2.0632,2.0605,2.0714,2.0759,2.0852,2.0887,2.0849,2.1032,2.1077,2.123,2.1274,2.1311,2.1342,2.1294,2.1489,2.1507,2.1524,2.1586,2.161,2.1322,2.1321,2.1321,2.132,0,2.0565,2.0656,2.0733,2.0821,2.0879,2.0982,2.1003,2.1062,2.1058,2.1081,2.1208,2.1261,2.1353,2.1389,2.1387,2.1543,2.1521,2.1486,2.1418,2.1554,2.1612,2.1636,2.1329,2.1327,2.1326,2.1325,0,0,2.077,2.0858,2.0887,2.0926,2.1,2.1072,2.1173,2.1261,2.1312,2.1376,2.1463,2.1587,2.1555,2.1606,2.161,2.1681,2.1821,2.1638,2.1639,2.167,2.1997,2.2023,2.205,2.1808,2.1812,2.1816,2.1991,0,2.0938,2.1115,2.1121,2.1284,2.1369,2.1344,2.1433,2.1489,2.1513,2.159,2.1617,2.1705,2.1656,2.1687,2.1756,2.1789,2.1887,2.1776,2.189,2.1894,2.1874,2.2081,2.2109,2.2272,2.2014,2.2018,2.2021,0,2.1157,2.1227,2.1397,2.1459,2.1495,2.1574,2.1655,2.1728,2.1791,2.1804,2.1861,2.1854,2.1959,2.1887,2.2034,2.1959,2.2006,2.2029,2.2035,2.2047,2.1966,2.2099,2.2324,2.2349,2.2057,2.2054,2.2051,0,2.129,2.1427,2.1547,2.1582,2.1656,2.1713,2.1747,2.1805,2.1858,2.1929,2.1963,2.2047,2.2093,2.2158,2.2174,2.212,2.2321,2.225,2.2336,2.2336,2.238,2.2377,2.2617,2.2409,2.2409,2.2408,2.2408,0,2.1477,2.1583,2.1607,2.1681,2.1799,2.1806,2.1923,2.1953,2.2005,2.2086,2.207,2.2146,2.2162,2.2242,2.2256,2.2376,2.2396,2.2411,2.2413,2.2413,2.2411,2.2444,2.2434,2.2415,2.2413,2.2412,2.2411,0,2.1646,2.1667,2.1796,2.1855,2.1873,2.1957,2.2009,2.2081,2.2102,2.2204,2.2229,2.2264,2.2357,2.2379,2.2491,2.25,2.2642,2.2633,2.262,2.262,2.2704,2.2697,2.2974,2.3012,2.2779,2.2781,2.2783,0,2.1765,2.1845,2.1913,2.1964,2.2001,2.2085,2.2137,2.2148,2.2204,2.2282,2.2344,2.2435,2.2508,2.2659,2.2695,2.2781,2.2774,2.2866,2.2787,2.2784,2.2777,2.2772,2.2781,2.2881,2.2884,2.2886,2.2887,0,2.1973,2.1979,2.2055,2.2135,2.2198,2.2262,2.2323,2.2367,2.2385,2.2449,2.2543,2.26,2.2713,2.2804,2.289,2.2927,2.2912,2.2911,2.2936,2.2937,2.2926,2.2934,2.2662,2.2905,2.2904,2.2902,2.2901,2.2901,2.2121,2.2191,2.2249,2.2335,2.2381,2.2439,2.2509,2.2539,2.2617,2.2708,2.271,2.2813,2.2875,2.2988,2.3029,2.3111,2.3083,2.3119,2.3128,2.3137,2.3145,2.2912,2.3127,2.3126,2.3126,2.3125,2.3125,0,2.2329,2.2365,2.2443,2.2528,2.2595,2.2572,2.2639,2.2697,2.2788,2.2845,2.2917,2.3026,2.3114,2.3157,2.3245,2.3302,2.3298,2.3325,2.3322,2.3331,2.3164,2.3134,2.3328,2.3328,2.3328,2.3328,2.3328,2.3327,2.2445,2.2562,2.2575,2.2717,2.2752,2.2852,2.2892,2.2945,2.2991,2.3113,2.3185,2.3212,2.3265,2.3356,2.3436,2.3447,2.348,2.3512,2.3519,2.3363,2.3342,2.3323,2.3295,2.3519,2.3519,2.3679,2.3681,2.3682]},{"header":{"parameterUnit":"m.s-1","parameterCategory":1,"la1":30.2991,"la2":30.254,"lo1":-89.0895,"lo2":-89.0444,"dy":0.0017,"dx":0.0017,"nx":28,"ny":28,"refTime":"2024-06-29T21:00:00:Z","depth":0,"parameterNumber":3,"parameterNumberName":"V-component_of_WINDS"},"data":[0,0,0,0,0,0,0,0,0,0,0,0,0,0,0,0,0,0,0,0,0,0,0,0,0,0,0,0,0,0,0,0,0,0,0,0,0,0,0,0,0,0,0,0,0,0,0,0,0,0,0,0,0,0,0,0,0,0,3.0041,3.0043,0,3.0224,3.0226,3.0228,3.0229,3.0227,3.0225,3.0223,3.0404,3.0411,3.0417,0,0,0,0,0,0,0,0,0,0,0,0,0,2.9685,2.9691,3.004,3.0043,3.0045,3.0224,3.0226,3.0229,3.023,3.0227,3.0224,3.0221,3.0401,3.041,3.0418,0,0,0,0,0,0,0,0,0,0,0,0,0,2.9851,2.9694,3.004,3.0067,3.0072,3.0223,3.0226,3.0229,3.023,3.0227,3.0223,3.022,3.0399,3.0409,3.0419,3.0554,0,0,3.0451,3.0456,0,0,0,0,0,0,0,0,2.9841,2.9864,3.0061,3.0066,3.0071,3.02,3.0167,3.0338,3.0231,3.017,3.0222,3.0218,3.0338,3.0354,3.0396,3.0562,3.057,3.0452,3.0459,3.0463,3.0466,0,0,0,0,0,0,0,2.983,2.9856,3.0113,3.0064,3.007,3.0068,3.0088,3.02,3.0271,3.0175,3.0176,3.0198,3.034,3.0385,3.04,3.0573,3.0452,3.0461,3.0468,3.0472,3.086,3.0864,0,0,0,0,0,0,2.9814,2.9846,3.0107,3.0118,2.9945,3.0078,3.01,3.0162,3.027,3.0283,3.02,3.0197,3.0369,3.0388,3.0406,3.0573,3.0463,3.0473,3.0479,3.0856,3.0861,3.0866,0,0,0,0,0,0,2.9806,2.9837,3.01,2.9983,3.0016,3.0088,3.0158,3.0168,3.0213,3.0289,3.0301,3.0234,3.0367,3.0391,3.0518,3.0579,3.0478,3.0487,3.0852,3.0858,3.0863,3.0905,0,0,0,0,0,0,2.9796,2.9834,2.9888,2.9984,3.0022,3.021,3.0161,3.0174,3.0232,3.0229,3.0324,3.0336,3.0366,3.0502,3.0528,3.0591,3.0495,3.0846,3.0854,3.0861,3.0899,3.0912,3.0923,0,0,0,0,0,2.9783,2.989,2.989,2.9922,3.0091,3.0214,3.0235,3.027,3.0237,3.029,3.0339,3.0333,3.0567,3.0515,3.0545,3.0612,3.0843,3.0852,3.0861,3.0893,3.0909,3.0923,0,0,0,0,0,0,2.9796,2.9903,2.9905,3.0046,3.0121,3.0214,3.0282,3.0286,3.037,3.0363,3.04,3.0422,3.0548,3.0592,3.0532,3.0748,3.0701,3.0716,3.0715,3.0731,3.0743,3.073,3.0504,0,0,0,0,0,2.9816,2.9909,2.9997,3.0113,3.0151,3.021,3.0265,3.0285,3.0363,3.0394,3.0453,3.0527,3.0618,3.0676,3.0764,3.0904,3.0925,3.0965,3.0977,3.0987,3.1,3.1079,3.1098,3.0895,3.0895,3.0895,0,0,2.9857,2.9927,2.9983,3.0118,3.0178,3.0272,3.0237,3.0337,3.0407,3.0409,3.0534,3.0579,3.0664,3.0799,3.0861,3.0839,3.106,3.0998,3.1005,3.1014,3.109,3.1109,3.1126,3.0901,3.09,3.0899,0,0,2.9981,3.0043,3.0148,3.021,3.0303,3.0342,3.0367,3.046,3.0491,3.0617,3.062,3.0702,3.0857,3.0919,3.097,3.1118,3.1115,3.1144,3.1209,3.1285,3.1301,3.1316,3.137,3.1388,3.1157,3.1157,3.1157,0,3.0019,3.0164,3.02,3.0303,3.0362,3.037,3.0476,3.0533,3.0649,3.0689,3.0663,3.0859,3.0917,3.1067,3.1103,3.1144,3.1173,3.1135,3.1296,3.1311,3.1325,3.1377,3.1397,3.116,3.116,3.116,3.1159,0,3.0208,3.0308,3.0381,3.0496,3.0563,3.0666,3.0717,3.078,3.0794,3.0835,3.0963,3.1033,3.1135,3.1171,3.1185,3.1324,3.1308,3.1289,3.1242,3.1347,3.1396,3.1416,3.1165,3.1164,3.1163,3.1162,0,0,3.0345,3.048,3.0507,3.056,3.0663,3.074,3.0843,3.0946,3.1,3.1079,3.1167,3.1298,3.1282,3.134,3.136,3.1427,3.1542,3.14,3.1403,3.1426,3.17,3.1715,3.1737,3.154,3.1544,3.1547,3.1693,0,3.0481,3.0668,3.0704,3.0866,3.0959,3.0968,3.1058,3.113,3.1171,3.1255,3.1298,3.1392,3.1363,3.1398,3.1465,3.1514,3.1597,3.1503,3.1621,3.1625,3.1602,3.1763,3.1779,3.1914,3.1713,3.1716,3.1718,0,3.0665,3.0753,3.0925,3.1018,3.1058,3.1138,3.1236,3.1316,3.1397,3.1422,3.1489,3.1502,3.1608,3.1556,3.1702,3.1638,3.1688,3.1719,3.1725,3.1739,3.1679,3.1782,3.1957,3.1978,3.1749,3.1746,3.1744,0,3.075,3.091,3.1035,3.1079,3.119,3.1247,3.1295,3.1374,3.1434,3.1518,3.1557,3.1651,3.1703,3.1775,3.1813,3.1772,3.1958,3.1908,3.1981,3.1981,3.2021,3.2019,3.2208,3.2051,3.205,3.205,3.205,0,3.0899,3.1005,3.1075,3.1151,3.1269,3.1309,3.1424,3.147,3.1541,3.1625,3.1637,3.1716,3.1761,3.1845,3.1875,3.1993,3.2015,3.2038,3.2045,3.2038,3.2036,3.2073,3.2065,3.2055,3.2054,3.2053,3.2052,0,3.1015,3.1066,3.1203,3.1298,3.1324,3.1407,3.1487,3.156,3.1601,3.1708,3.1735,3.1799,3.19,3.1945,3.2067,3.2088,3.2223,3.2222,3.2196,3.2199,3.227,3.2264,3.2492,3.2524,3.2343,3.2345,3.2346,0,3.1108,3.119,3.1294,3.1353,3.1404,3.1498,3.1561,3.1602,3.1666,3.1766,3.1827,3.1929,3.2013,3.2172,3.2229,3.2323,3.2325,3.2399,3.234,3.2331,3.2329,3.2324,3.2333,3.241,3.2412,3.2413,3.2414,0,3.1268,3.129,3.138,3.148,3.1555,3.1635,3.1713,3.1759,3.1813,3.1883,3.1988,3.2053,3.2181,3.2281,3.2379,3.2427,3.243,3.2433,3.2455,3.245,3.2432,3.2445,3.2228,3.2427,3.2426,3.2425,3.2424,3.2424,3.1376,3.145,3.1536,3.1637,3.17,3.1773,3.1848,3.19,3.1989,3.2098,3.2115,3.2227,3.2307,3.244,3.2491,3.2577,3.2559,3.2591,3.2599,3.2607,3.2613,3.2417,3.2595,3.2594,3.2594,3.2594,3.2594,0,3.1538,3.1595,3.1687,3.1798,3.1877,3.1875,3.1961,3.2027,3.2126,3.2201,3.2284,3.2404,3.2502,3.2567,3.2665,3.2722,3.2726,3.2747,3.2744,3.2755,3.2622,3.2594,3.2742,3.2742,3.2742,3.2742,3.2742,3.2742,3.1632,3.1758,3.179,3.1947,3.2001,3.2113,3.2163,3.223,3.2291,3.2426,3.2509,3.2551,3.2621,3.2725,3.2815,3.2831,3.2867,3.2889,3.2905,3.278,3.2764,3.2749,3.2723,3.2897,3.2897,3.3031,3.3032,3.3033]}]]